KO4MMQ-10 Weather Reports


Display with metric or nautical units.
time (UTC)temp
F
wind
direction
speed
MPH
gust
MPH
rain 1hr
in
rain 24hr
in
rain mn
in
humidity
%
barometer
mb
20260505040827 67 0 0.0 1.0 0.00 0.00 0.00 59 1010.5
20260505035828 67 0 0.0 4.0 0.00 0.00 0.00 58 1010.5
20260505034828 68 0 0.0 2.0 0.00 0.00 0.00 58 1010.3
20260505033828 68 252 2.0 3.0 0.00 0.00 0.00 57 1010.4
20260505032828 68 0 0.0 6.0 0.00 0.00 0.00 57 1010.4
20260505031828 68 208 1.0 5.0 0.00 0.00 0.00 58 1010.3
20260505030828 68 0 0.0 2.0 0.00 0.00 0.00 58 1010.3
20260505024828 68 0 0.0 1.0 0.00 0.00 0.00 58 1010.1
20260505023828 68 231 1.0 1.0 0.00 0.00 0.00 57 1010.1
20260505022828 68 0 0.0 1.0 0.00 0.00 0.00 57 1010.2
20260505020829 69 0 0.0 1.0 0.00 0.00 0.00 55 1010.0
20260505015828 69 0 0.0 0.0 0.00 0.00 0.00 54 1009.9
20260505014827 69 0 0.0 2.0 0.00 0.00 0.00 54 1009.8
20260505013829 70 0 0.0 2.0 0.00 0.00 0.00 53 1009.8
20260505012828 70 0 0.0 1.0 0.00 0.00 0.00 52 1009.8
20260505011828 71 0 0.0 1.0 0.00 0.00 0.00 51 1009.8
20260505010828 71 0 0.0 0.0 0.00 0.00 0.00 49 1010.0
20260505005827 72 0 0.0 2.0 0.00 0.00 0.00 48 1009.9
20260505004828 72 0 0.0 4.0 0.00 0.00 0.00 47 1009.8
20260505003828 73 138 2.0 9.0 0.00 0.00 0.00 46 1009.7
20260505002827 73 182 1.0 2.0 0.00 0.00 0.00 46 1009.8
20260505000828 75 0 0.0 5.0 0.00 0.00 0.00 45 1009.9
20260504235827 75 0 0.0 5.0 0.00 0.00 0.00 44 1009.9
20260504234828 76 139 1.0 7.0 0.00 0.00 0.00 43 1009.8
20260504233828 77 156 3.0 7.0 0.00 0.00 0.00 42 1009.9
20260504231827 78 199 2.0 4.0 0.00 0.00 0.00 40 1009.8
20260504230828 79 208 2.0 9.0 0.00 0.00 0.00 40 1009.9
20260504225828 79 139 6.0 10.0 0.00 0.00 0.00 40 1009.9
20260504224827 80 261 4.0 10.0 0.00 0.00 0.00 39 1009.7
20260504223827 79 179 6.0 9.0 0.00 0.00 0.00 39 1009.8
20260504221828 80 254 1.0 10.0 0.00 0.00 0.00 39 1009.7
20260504214828 80 227 7.0 9.0 0.00 0.00 0.00 38 1009.9
20260504212827 80 170 1.0 8.0 0.00 0.00 0.00 39 1009.7
20260504210828 81 150 6.0 7.0 0.00 0.00 0.00 39 1010.2
20260504204827 80 205 5.0 9.0 0.00 0.00 0.00 37 1010.2
20260504202828 81 181 4.0 6.0 0.00 0.00 0.00 39 1010.6
20260504200828 80 0 0.0 14.0 0.00 0.00 0.00 40 1010.8
20260504195827 80 245 4.0 14.0 0.00 0.00 0.00 39 1011.0
20260504194827 80 226 2.0 9.0 0.00 0.00 0.00 38 1011.2
20260504193827 81 252 3.0 4.0 0.00 0.00 0.00 41 1011.2
20260504191827 80 145 1.0 11.0 0.00 0.00 0.00 37 1011.4
20260504184827 80 248 2.0 5.0 0.00 0.00 0.00 38 1011.8
20260504182828 80 236 4.0 13.0 0.00 0.00 0.00 41 1012.3
20260504181827 80 109 2.0 5.0 0.00 0.00 0.00 42 1012.4
20260504175827 79 217 4.0 5.0 0.00 0.00 0.00 45 1012.6
20260504173828 79 120 5.0 8.0 0.00 0.00 0.00 43 1012.9
20260504171827 78 274 2.0 12.0 0.00 0.00 0.00 45 1013.1
20260504170828 78 63 3.0 11.0 0.00 0.00 0.00 45 1013.2
20260504150828 70 147 4.0 6.0 0.00 0.00 0.00 62 1014.0
20260504140827 66 0 0.0 4.0 0.00 0.00 0.00 69 1014.2
20260504080828 59 0 0.0 3.0 0.00 0.00 0.00 69 1013.7
20260504044828 60 0 0.0 1.0 0.00 0.00 0.00 65 1015.1
20260504043828 60 221 2.0 4.0 0.00 0.00 0.00 64 1015.3
20260504042829 60 0 0.0 1.0 0.00 0.00 0.00 63 1015.3